sat.trackr.live / text

‹ back to catalog

BRO-6

NORAD 52422 · 2022-047AE

PAYLOAD ACTIVE UNKNOWN

§ Identity

Operator
Country
FR
Launch date
2022-05-02
Launch site
RLLB
Launch vehicle
Mass (kg)
RCS (m²)

External: N2YO · Heavens-Above · Gunter

§ Orbital elements

Epoch: 2026-09-20T22:38:24.347904Z

Period
92.42 min
Inclination
97.3355°
Eccentricity
0.0004878
Mean motion
15.58056101 rev/d
Perigee alt
390.0 km
Apogee alt
396.6 km
Semi-major
6,771.4 km
B*
5.6884e-4
RAAN
357.3276°
Arg perigee
81.4672°
Mean anomaly
278.7137°
Rev number
24,602

§ Raw data

BRO-61 52422U 22047AE  26263.94333736  .00042770  00000+0  56884-3 0  99902 52422  97.3355 357.3276 0004878  81.4672 278.7137 15.58056101246028

JSON: /api/v1/satellites/52422 · /tle

For live sub-satellite position, see the globe view (requires WebGL).

§ Visibility from observer

Set your observer location to see the next 7 days of passes ≥ 10°. The values pass through the URL so the page stays shareable.

No JS? Fill the form by hand. The geolocation button needs JavaScript.

§ Radio — SatNOGS DB

ModeDescriptionDownlinkUplink
FSK AX.100 Mode 5 Mode U - TLM 401.550 MHz
FSK S-Band transmitter 2.261 GHz
FM S-band telemetry 2.276 GHz
FSK AX.100 Mode 5 Telemetry 401.246 MHz
FSK AX.100 Mode 5 Mode U - TLM (inactive) 401.735 MHz

5 transmitters · refreshed weekly from db.satnogs.org